Regional Weather Roundup
Issued by NWS

Home | Current Version | Previous Version | Text Only | Print | Product List | Glossary Off
Versions: 1 2 3 4 5 6 7 8 9 10 11 12 13 14 15 16 17 18 19 20 21 22 23 24 25 26 27 28 29 30 31 32 33 34 35 36 37 38 39 40 41 42 43 44 45 46 47 48 49 50

000
ASUS43 KTOP 052359
RWRKS

WEATHER ROUNDUP FOR KANSAS
NATIONAL WEATHER SERVICE GOODLAND KS
700 PM CDT THU MAY 05 2016

NOTE:  "FAIR" INDICATES FEW OR NO CLOUDS BELOW 12,000 FEET WITH NO
SIGNIFICANT WEATHER AND/OR OBSTRUCTIONS TO VISIBILITY.

KSZ001>006-013>018-027>032-041>047-060100-
NORTHWEST KANSAS

CITY           SKY/WX    TMP DP  RH WIND       PRES   REMARKS
GOODLAND       CLOUDY    77  44  30 SE16G23   30.00F
6HR MIN TEMP:  77; 6HR MAX TEMP:  81;

HAYS           SUNNY     77  45  31 SE10      30.01F
HILL CITY      CLOUDY    79  45  29 SE10      30.01F
6HR MIN TEMP:  78; 6HR MAX TEMP:  83;

RUSSELL        SUNNY     77  46  33 S8        30.01S
6HR MIN TEMP:  73; 6HR MAX TEMP:  78;

$$

KSZ061>065-074>080-084>089-060100-
SOUTHWEST KANSAS

CITY           SKY/WX    TMP DP  RH WIND       PRES   REMARKS
DODGE CITY     SUNNY     75  48  38 SE13      30.02F
6HR MIN TEMP:  74; 6HR MAX TEMP:  78;

ELKHART          N/A     84  45  25 SE10        N/A
GARDEN CITY    SUNNY     79  44  28 SE16G26   30.00S
6HR MIN TEMP:  77; 6HR MAX TEMP:  82;

GREAT BEND     SUNNY     79  43  27 SE7       30.01F
LIBERAL        SUNNY     81  46  30 SE13      30.00S
$$

KSZ066>073-081>083-090>101-060100-
SOUTHEAST KANSAS

CITY           SKY/WX    TMP DP  RH WIND       PRES   REMARKS
CHANUTE        SUNNY     74  43  32 NE6       30.01F
6HR MIN TEMP:  74; 6HR MAX TEMP:  78;

COFFEYVILLE    SUNNY     75  47  36 NE6       30.01F
6HR MIN TEMP:  74; 6HR MAX TEMP:  78;

HUTCHINSON     SUNNY     78  40  25 SE6       30.01F
6HR MIN TEMP:  75; 6HR MAX TEMP:  81;

MEDICINE LODGE   N/A     78  46  32 S6        30.01F
NEWTON         SUNNY     75  41  29 E3        30.05S
PARSONS        SUNNY     75  45  34 NE3       30.02F
6HR MIN TEMP:  73; 6HR MAX TEMP:  78;

WICHITA INTL   MOSUNNY   79  39  23 CALM      30.00F
6HR MIN TEMP:  75; 6HR MAX TEMP:  82;

WICHITA JABRA  SUNNY     77  43  29 E3        30.01F
6HR MIN TEMP:  74; 6HR MAX TEMP:  81;

WINFIELD       SUNNY     79  44  28 CALM      30.44R
6HR MIN TEMP:  75; 6HR MAX TEMP:  80;

$$

KSZ007>012-019>026-033>040-048>060-102>105-060100-
NORTHEAST KANSAS

CITY           SKY/WX    TMP DP  RH WIND       PRES   REMARKS
CONCORDIA      SUNNY     75  46  35 S7        30.01S
6HR MIN TEMP:  74; 6HR MAX TEMP:  80;

EMPORIA        SUNNY     74  44  34 E6        30.01F
6HR MIN TEMP:  72; 6HR MAX TEMP:  77;

LAWRENCE       SUNNY     73  42  32 NE5       30.02F
6HR MIN TEMP:  72; 6HR MAX TEMP:  76;

MANHATTAN      SUNNY     79  39  23 E3        30.00F
6HR MIN TEMP:  75; 6HR MAX TEMP:  80;

OLATHE IND     SUNNY     70  41  34 N3        30.03F
6HR MIN TEMP:  70; 6HR MAX TEMP:  74;

OLATHE EXE     SUNNY     71  35  26 N5        30.02F
6HR MIN TEMP:  69; 6HR MAX TEMP:  73;

SALINA         SUNNY     79  41  25 SE7       30.01F
6HR MIN TEMP:  75; 6HR MAX TEMP:  80;

TOPEKA BILLARD SUNNY     75  41  29 N3        30.01F
6HR MIN TEMP:  73; 6HR MAX TEMP:  77;

TOPEKA FORBES  SUNNY     75  43  31 NE3       30.02F
6HR MIN TEMP:  74; 6HR MAX TEMP:  78;

$$




USA.gov is the U.S. government's official web portal to all federal, state and local government web resources and services.